Date String (YYYY-MM-DD hh:mm:ss) UTC,Instrument flags,absolute air pressure of the measurement (hPa),sample flow rate (lpm),inlet stack bypass flow (lpm),air temperature of the measurement (°C),ambient temperature measured by the external sensor (°C),aerosol sample conditioner tube jacket temperature (°C),OPC LED temperature (°C),internal box temperature (°C),relative humidity of the measurement (%),span deviation,mass concentration of particles derived from Lorenz-Mie calculation of OPC scattering (μg/m³),mass concentration of particles derived from Lorenz-Mie calculation of OPC scattering (μg/m³),mass concentration of particles derived from Lorenz-Mie calculation of OPC scattering (μg/m³)
DateTimeUTC,F1_M11,P_M11,Q1_M11,Q2_M11,T1_M11,T2_M11,T3_M11,T4_M11,T5_M11,U1_M11,ZSPAN_M11,X0_M11,X2_M11,X1_M11
2023-08-04 19:00:00,SystemResetWarning,0831.9,5.00,000.00,028.9,025.2,000.0,037.0,030.2,27.6,0000.0,0010.78,0003.49,0002.90
2023-08-04 19:01:00,SystemResetWarning,0831.9,5.00,000.00,028.8,025.2,000.0,037.0,030.1,29.1,0000.0,0010.73,0003.46,0002.88
2023-08-04 19:02:00,SystemResetWarning,0831.8,5.02,000.00,028.8,025.5,000.0,037.0,030.0,28.0,0000.0,0010.69,0003.40,0002.82
2023-08-04 19:03:00,SystemResetWarning,0831.8,5.00,000.00,028.7,025.9,000.0,037.1,030.1,24.1,0000.0,0009.33,0003.33,0002.77
2023-08-04 19:04:00,SystemResetWarning,0832.0,5.00,000.00,028.7,026.3,000.0,037.1,030.2,23.4,0000.0,0008.89,0003.35,0002.80
2023-08-04 19:05:00,SystemResetWarning,0831.9,5.00,000.00,028.8,026.7,000.0,037.1,030.3,19.3,0000.0,0008.43,0003.40,0002.88
2023-08-04 19:06:00,SystemResetWarning,0832.0,5.00,000.00,028.8,027.1,000.0,037.2,030.4,19.8,0000.0,0008.95,0003.45,0002.94
2023-08-04 19:07:00,SystemResetWarning,0831.9,5.01,000.00,028.9,027.4,000.0,037.2,030.5,20.3,0000.0,0008.76,0003.48,0002.97
2023-08-04 19:08:00,SystemResetWarning,0832.0,4.98,000.00,028.9,027.0,000.0,037.1,030.5,25.6,0000.0,0008.81,0003.49,0002.98
2023-08-04 19:09:00,SystemResetWarning,0831.8,4.99,000.00,028.9,025.7,000.0,037.0,030.3,22.4,0000.0,0009.19,0003.48,0002.94
2023-08-04 19:10:00,SystemResetWarning,0831.7,5.01,000.00,028.8,025.1,000.0,037.0,030.2,18.2,0000.0,0009.29,0003.43,0002.86
2023-08-04 19:11:00,SystemResetWarning,0831.6,5.01,000.00,028.7,025.2,000.0,037.0,030.0,16.8,0000.0,0009.26,0003.37,0002.77
2023-08-04 19:12:00,SystemResetWarning,0831.6,5.00,000.00,028.7,025.6,000.0,037.0,030.0,15.6,0000.0,0008.99,0003.30,0002.66
2023-08-04 19:13:00,SystemResetWarning,0831.5,5.00,000.00,028.7,026.0,000.0,037.0,030.1,15.7,0000.0,0008.39,0003.25,0002.58
2023-08-04 19:14:00,SystemResetWarning,0831.6,5.00,000.00,028.7,026.5,000.0,037.1,030.3,17.7,0000.0,0008.36,0003.23,0002.54
2023-08-04 19:15:00,SystemResetWarning,0831.7,5.00,000.00,028.8,026.8,000.0,037.1,030.3,25.0,0000.0,0008.66,0003.20,0002.51
2023-08-04 19:16:00,SystemResetWarning,0831.9,5.00,000.00,028.8,027.2,000.0,037.1,030.4,26.7,0000.0,0008.41,0003.18,0002.48
2023-08-04 19:17:00,SystemResetWarning,0831.6,5.00,000.00,028.8,027.4,000.0,037.1,030.5,23.5,0000.0,0008.49,0003.20,0002.48
2023-08-04 19:18:00,SystemResetWarning,0831.6,4.99,000.00,028.8,026.4,000.0,037.0,030.4,22.3,0000.0,0009.09,0003.22,0002.51
2023-08-04 19:19:00,SystemResetWarning,0831.6,5.01,000.00,028.8,025.1,000.0,036.9,030.1,26.1,0000.0,0008.91,0003.25,0002.54
2023-08-04 19:20:00,SystemResetWarning,0831.6,5.01,000.00,028.7,025.0,000.0,036.9,030.1,24.9,0000.0,0008.57,0003.29,0002.61
2023-08-04 19:21:00,SystemResetWarning,0831.6,5.00,000.00,028.7,025.3,000.0,036.9,030.0,26.6,0000.0,0008.54,0003.34,0002.68
2023-08-04 19:22:00,SystemResetWarning,0831.5,5.00,000.00,028.6,025.7,000.0,036.9,030.0,28.8,0000.0,0008.47,0003.37,0002.74
2023-08-04 19:23:00,SystemResetWarning,0831.6,5.00,000.00,028.7,026.2,000.0,037.0,030.1,27.7,0000.0,0008.56,0003.43,0002.82
2023-08-04 19:24:00,SystemResetWarning,0831.6,5.01,000.00,028.7,026.6,000.0,037.0,030.2,25.4,0000.0,0008.63,0003.46,0002.86
2023-08-04 19:25:00,SystemResetWarning,0831.6,5.00,000.00,028.7,027.0,000.0,037.0,030.3,25.5,0000.0,0008.66,0003.45,0002.84
2023-08-04 19:26:00,SystemResetWarning,0831.5,4.99,000.00,028.8,027.3,000.0,037.1,030.4,25.5,0000.0,0007.96,0003.38,0002.76
2023-08-04 19:27:00,SystemResetWarning,0831.5,4.99,000.00,028.8,027.2,000.0,037.0,030.5,24.0,0000.0,0007.69,0003.33,0002.68
2023-08-04 19:28:00,SystemResetWarning,0831.5,5.00,000.00,028.8,025.8,000.0,036.9,030.3,24.2,0000.0,0007.32,0003.26,0002.59
2023-08-04 19:29:00,SystemResetWarning,0831.5,5.00,000.00,028.7,025.0,000.0,036.9,030.1,24.6,0000.0,0006.36,0003.25,0002.56
2023-08-04 19:30:00,SystemResetWarning,0831.5,5.01,000.00,028.7,025.1,000.0,036.9,030.0,24.9,0000.0,0006.40,0003.22,0002.50
2023-08-04 19:31:00,SystemResetWarning,0831.5,5.01,000.00,028.6,025.4,000.0,036.9,030.0,24.9,0000.0,0006.16,0003.14,0002.39
2023-08-04 19:32:00,SystemResetWarning,0831.5,4.99,000.00,028.6,025.9,000.0,036.9,030.1,26.4,0000.0,0006.64,0003.02,0002.28
2023-08-04 19:33:00,SystemResetWarning,0831.5,5.00,000.00,028.6,026.3,000.0,037.0,030.2,26.3,0000.0,0007.26,0002.89,0002.18
2023-08-04 19:34:00,SystemResetWarning,0831.5,5.00,000.00,028.7,026.7,000.0,037.0,030.3,26.5,0000.0,0007.33,0002.76,0002.05
2023-08-04 19:35:00,SystemResetWarning,0831.5,5.00,000.00,028.7,027.1,000.0,037.0,030.4,26.9,0000.0,0007.22,0002.64,0001.97
2023-08-04 19:36:00,SystemResetWarning,0831.4,5.00,000.00,028.7,027.4,000.0,037.0,030.5,27.1,0000.0,0007.08,0002.61,0001.98
2023-08-04 19:37:00,SystemResetWarning,0831.5,4.99,000.00,028.8,027.4,000.0,037.0,030.5,28.0,0000.0,0007.31,0002.74,0002.06
2023-08-04 19:38:00,SystemResetWarning,0831.4,4.98,000.00,028.8,026.1,000.0,036.9,030.4,25.1,0000.0,0007.35,0002.81,0002.14
2023-08-04 19:39:00,SystemResetWarning,0831.4,5.02,000.00,028.7,025.0,000.0,036.9,030.2,25.2,0000.0,0007.34,0002.83,0002.17
2023-08-04 19:40:00,SystemResetWarning,0831.4,5.01,000.00,028.7,025.0,000.0,036.8,030.0,27.8,0000.0,0006.90,0002.81,0002.20
2023-08-04 19:41:00,SystemResetWarning,0831.4,5.00,000.00,028.6,025.4,000.0,036.9,029.9,26.4,0000.0,0006.46,0002.82,0002.26
2023-08-04 19:42:00,SystemResetWarning,0831.3,5.00,000.00,028.6,025.9,000.0,036.9,030.0,25.7,0000.0,0006.85,0002.94,0002.36
2023-08-04 19:43:00,SystemResetWarning,0831.3,4.99,000.00,028.6,026.4,000.0,036.9,030.2,23.4,0000.0,0006.25,0003.07,0002.48
2023-08-04 19:44:00,SystemResetWarning,0831.3,5.00,000.00,028.7,026.8,000.0,037.0,030.3,25.0,0000.0,0005.59,0003.17,0002.61
2023-08-04 19:45:00,SystemResetWarning,0831.3,5.00,000.00,028.7,027.2,000.0,037.0,030.4,23.6,0000.0,0005.73,0003.27,0002.74
2023-08-04 19:46:00,SystemResetWarning,0831.3,5.00,000.00,028.8,027.3,000.0,037.0,030.5,23.4,0000.0,0006.02,0003.36,0002.86
2023-08-04 19:47:00,SystemResetWarning,0831.3,4.99,000.00,028.8,026.2,000.0,036.9,030.4,25.4,0000.0,0006.10,0003.38,0002.90
2023-08-04 19:48:00,SystemResetWarning,0831.3,5.00,000.00,028.7,025.2,000.0,036.8,030.2,22.7,0000.0,0006.08,0003.35,0002.87
2023-08-04 19:49:00,SystemResetWarning,0831.3,5.00,000.00,028.7,025.3,000.0,036.8,030.1,21.7,0000.0,0006.37,0003.37,0002.86
2023-08-04 19:50:00,SystemResetWarning,0831.3,5.01,000.00,028.6,025.6,000.0,036.9,030.1,21.6,0000.0,0006.99,0003.43,0002.93
2023-08-04 19:51:00,SystemResetWarning,0831.3,5.00,000.00,028.6,026.1,000.0,036.9,030.2,22.7,0000.0,0007.05,0003.44,0002.92
2023-08-04 19:52:00,SystemResetWarning,0831.4,5.00,000.00,028.7,026.5,000.0,036.9,030.3,24.1,0000.0,0007.24,0003.45,0002.92
2023-08-04 19:53:00,SystemResetWarning,0831.3,5.00,000.00,028.7,026.9,000.0,037.0,030.4,23.8,0000.0,0007.34,0003.45,0002.93
2023-08-04 19:54:00,SystemResetWarning,0831.4,5.00,000.00,028.8,027.2,000.0,037.0,030.5,23.7,0000.0,0007.91,0003.44,0002.94
2023-08-04 19:55:00,SystemResetWarning,0831.4,4.98,000.00,028.8,026.9,000.0,037.0,030.4,24.0,0000.0,0008.38,0003.43,0002.94
2023-08-04 19:56:00,SystemResetWarning,0831.3,5.00,000.00,028.7,025.6,000.0,036.9,030.1,22.3,0000.0,0008.60,0003.43,0002.94
2023-08-04 19:57:00,SystemResetWarning,0831.4,5.01,000.00,028.7,025.1,000.0,036.9,029.9,22.1,0000.0,0009.38,0003.40,0002.96
2023-08-04 19:58:00,SystemResetWarning,0831.4,5.01,000.00,028.6,025.3,000.0,036.9,030.0,22.0,0000.0,0009.65,0003.43,0003.00
2023-08-04 19:59:00,SystemResetWarning,0831.4,4.99,000.00,028.6,025.7,000.0,036.9,030.1,21.7,0000.0,0009.75,0003.47,0003.02
